• In Deutschland
  • Länderverzeichnis
  • Für 7 Tage
  • Wassertemperatur
  • Satellitenkarten
  • Wetterkarte
  • Widgets
  • user-avatar
    Anmelden

    Stündliche Wetter Rosenheim

    Heute, 23 Oktober, Montag

    Zeit Temperatur Niederschläge Wind Luftdruck Luftfeuchtigkeit
    00:00 +5°C° 0,7 mm 3 m/S 722 mmHg 94%
    01:00 +5°C° 0 mm 3 m/S 722 mmHg 94%
    02:00 +5°C° 0,6 mm 3 m/S 722 mmHg 94%
    03:00 +5°C° 0,6 mm 3 m/S 722 mmHg 94%
    04:00 +5°C° 0,6 mm 3 m/S 722 mmHg 94%
    05:00 +5°C° 0,6 mm 3 m/S 722 mmHg 95%
    06:00 +5°C° 0,6 mm 3 m/S 723 mmHg 95%
    07:00 +6°C° 0 mm 2 m/S 722 mmHg 95%
    08:00 +5°C° 0,5 mm 3 m/S 723 mmHg 93%
    09:00 +7°C° 0,5 mm 3 m/S 723 mmHg 91%
    10:00 +6°C° 0,5 mm 4 m/S 723 mmHg 89%
    11:00 +6°C° 0,6 mm 4 m/S 723 mmHg 89%
    12:00 +7°C° 0,6 mm 4 m/S 723 mmHg 89%
    13:00 +8°C° 0 mm 3 m/S 723 mmHg 88%
    14:00 +8°C° 0,5 mm 3 m/S 724 mmHg 88%
    15:00 +8°C° 0,5 mm 3 m/S 724 mmHg 89%
    16:00 +8°C° 0,5 mm 3 m/S 724 mmHg 90%
    17:00 +7°C° 0,6 mm 2 m/S 725 mmHg 91%
    18:00 +7°C° 0,6 mm 2 m/S 725 mmHg 93%
    19:00 +7°C° 0,6 mm 2 m/S 726 mmHg 94%
    20:00 +7°C° 0,7 mm 2 m/S 726 mmHg 94%
    21:00 +7°C° 0,7 mm 2 m/S 726 mmHg 95%
    22:00 +7°C° 0,7 mm 2 m/S 727 mmHg 95%
    23:00 +7°C° 0,5 mm 2 m/S 727 mmHg 95%

    Morgen, 24 Oktober, Dienstag

    Zeit Temperatur Niederschläge Wind Luftdruck Luftfeuchtigkeit
    00:00 +7°C° 0,5 mm 2 m/S 727 mmHg 95%
    01:00 +7°C° 0,5 mm 3 m/S 728 mmHg 95%
    02:00 +7°C° 0,5 mm 2 m/S 728 mmHg 95%
    03:00 +7°C° 0,5 mm 2 m/S 728 mmHg 95%
    04:00 +7°C° 0,5 mm 2 m/S 728 mmHg 95%
    05:00 +7°C° 0,2 mm 2 m/S 728 mmHg 95%
    06:00 +7°C° 0,2 mm 2 m/S 729 mmHg 95%
    07:00 +7°C° 0,2 mm 2 m/S 729 mmHg 95%
    08:00 +8°C° 0,1 mm 2 m/S 729 mmHg 93%
    09:00 +8°C° 0,1 mm 2 m/S 729 mmHg 92%
    10:00 +9°C° 0,1 mm 2 m/S 729 mmHg 90%
    11:00 +10°C° 0 mm 2 m/S 729 mmHg 85%
    12:00 +12°C° 0 mm 2 m/S 729 mmHg 81%
    13:00 +13°C° 0 mm 2 m/S 729 mmHg 76%
    14:00 +13°C° 0 mm 1 m/S 729 mmHg 78%
    15:00 +13°C° 0 mm 1 m/S 728 mmHg 79%
    16:00 +13°C° 0 mm 1 m/S 728 mmHg 81%
    17:00 +12°C° 0 mm 1 m/S 729 mmHg 82%
    18:00 +11°C° 0 mm 1 m/S 729 mmHg 82%
    19:00 +9°C° 0 mm 2 m/S 730 mmHg 82%
    20:00 +9°C° 0 mm 2 m/S 730 mmHg 83%
    21:00 +8°C° 0 mm 2 m/S 730 mmHg 84%
    22:00 +7°C° 0 mm 2 m/S 730 mmHg 85%
    23:00 +7°C° 0 mm 2 m/S 730 mmHg 84%

    übermorgen, 25 Oktober, Mittwoch

    Zeit Temperatur Niederschläge Wind Luftdruck Luftfeuchtigkeit
    00:00 +7°C° 0 mm 2 m/S 729 mmHg 84%
    01:00 +7°C° 0 mm 2 m/S 729 mmHg 83%
    02:00 +8°C° 0 mm 2 m/S 729 mmHg 82%
    03:00 +8°C° 0 mm 2 m/S 729 mmHg 80%
    04:00 +8°C° 0 mm 2 m/S 729 mmHg 79%
    05:00 +8°C° 0 mm 2 m/S 729 mmHg 80%
    06:00 +8°C° 0 mm 2 m/S 729 mmHg 81%
    07:00 +8°C° 0 mm 2 m/S 729 mmHg 82%
    08:00 +11°C° 0 mm 1 m/S 729 mmHg 79%
    09:00 +13°C° 0 mm 1 m/S 729 mmHg 76%
    10:00 +14°C° 0 mm 1 m/S 729 mmHg 73%
    11:00 +16°C° 0 mm 1 m/S 729 mmHg 71%
    12:00 +18°C° 0 mm 1 m/S 729 mmHg 69%
    13:00 +19°C° 0 mm 1 m/S 729 mmHg 67%
    14:00 +18°C° 0 mm 1 m/S 729 mmHg 71%
    15:00 +18°C° 0 mm 1 m/S 729 mmHg 75%
    16:00 +16°C° 0 mm 1 m/S 728 mmHg 79%
    17:00 +15°C° 0 mm 1 m/S 729 mmHg 82%
    18:00 +13°C° 0 mm 1 m/S 729 mmHg 85%
    19:00 +12°C° 0 mm 1 m/S 730 mmHg 89%
    20:00 +11°C° 0 mm 1 m/S 730 mmHg 89%
    21:00 +11°C° 0 mm 1 m/S 730 mmHg 88%
    22:00 +10°C° 0 mm 2 m/S 730 mmHg 88%
    23:00 +10°C° 0 mm 2 m/S 730 mmHg 88%

    26 Oktober, Donnerstag

    Zeit Temperatur Niederschläge Wind Luftdruck Luftfeuchtigkeit
    00:00 +9°C° 0 mm 2 m/S 730 mmHg 87%
    01:00 +10°C° 0 mm 1 m/S 730 mmHg 86%
    02:00 +9°C° 0 mm 2 m/S 730 mmHg 85%
    03:00 +9°C° 0 mm 2 m/S 730 mmHg 84%
    04:00 +9°C° 0 mm 2 m/S 730 mmHg 83%
    05:00 +9°C° 0 mm 2 m/S 730 mmHg 81%
    06:00 +9°C° 0 mm 2 m/S 730 mmHg 80%
    07:00 +9°C° 0 mm 2 m/S 730 mmHg 78%
    08:00 +12°C° 0 mm 1 m/S 730 mmHg 75%
    09:00 +14°C° 0 mm 1 m/S 730 mmHg 71%
    10:00 +16°C° 0 mm 1 m/S 730 mmHg 68%
    11:00 +18°C° 0 mm 1 m/S 730 mmHg 66%
    12:00 +19°C° 0 mm 1 m/S 729 mmHg 64%
    13:00 +20°C° 0 mm 1 m/S 729 mmHg 62%
    14:00 +20°C° 0 mm 1 m/S 729 mmHg 66%
    15:00 +19°C° 0 mm 1 m/S 729 mmHg 71%
    16:00 +18°C° 0 mm 1 m/S 728 mmHg 76%
    17:00 +16°C° 0 mm 1 m/S 728 mmHg 79%
    18:00 +14°C° 0 mm 1 m/S 728 mmHg 82%
    19:00 +13°C° 0 mm 2 m/S 729 mmHg 84%
    20:00 +12°C° 0 mm 2 m/S 729 mmHg 84%
    21:00 +12°C° 0 mm 2 m/S 729 mmHg 83%
    22:00 +12°C° 0 mm 2 m/S 729 mmHg 82%
    23:00 +12°C° 0 mm 2 m/S 728 mmHg 80%

    27 Oktober, Freitag

    Zeit Temperatur Niederschläge Wind Luftdruck Luftfeuchtigkeit
    00:00 +10°C° 0 mm 2 m/S 728 mmHg 78%
    01:00 +10°C° 0 mm 2 m/S 728 mmHg 76%
    02:00 +10°C° 0 mm 2 m/S 728 mmHg 75%
    03:00 +10°C° 0 mm 2 m/S 727 mmHg 74%
    04:00 +10°C° 0 mm 2 m/S 727 mmHg 73%
    05:00 +10°C° 0 mm 2 m/S 727 mmHg 73%
    06:00 +10°C° 0 mm 2 m/S 727 mmHg 73%
    07:00 +10°C° 0 mm 2 m/S 726 mmHg 73%
    08:00 +12°C° 0 mm 3 m/S 726 mmHg 71%
    09:00 +14°C° 0 mm 3 m/S 726 mmHg 69%
    10:00 +17°C° 0 mm 3 m/S 725 mmHg 68%
    11:00 +17°C° 0 mm 4 m/S 725 mmHg 67%
    12:00 +18°C° 0 mm 4 m/S 724 mmHg 67%
    13:00 +17°C° 0 mm 5 m/S 724 mmHg 66%
    14:00 +16°C° 0,3 mm 5 m/S 723 mmHg 71%
    15:00 +15°C° 0,3 mm 5 m/S 723 mmHg 77%
    16:00 +14°C° 0,3 mm 5 m/S 723 mmHg 82%
    17:00 +13°C° 1,9 mm 4 m/S 723 mmHg 86%
    18:00 +11°C° 1,9 mm 4 m/S 724 mmHg 89%
    19:00 +10°C° 1,9 mm 4 m/S 724 mmHg 93%
    20:00 +8°C° 1,9 mm 4 m/S 725 mmHg 93%
    21:00 +9°C° 1,9 mm 3 m/S 725 mmHg 94%
    22:00 +8°C° 1,9 mm 2 m/S 726 mmHg 94%
    23:00 +7°C° 0,2 mm 2 m/S 726 mmHg 94%

    28 Oktober, Samstag

    Zeit Temperatur Niederschläge Wind Luftdruck Luftfeuchtigkeit
    00:00 +7°C° 0,2 mm 2 m/S 726 mmHg 94%
    01:00 +7°C° 0,2 mm 2 m/S 726 mmHg 93%
    02:00 +7°C° 0,1 mm 3 m/S 726 mmHg 93%
    03:00 +5°C° 0,1 mm 3 m/S 726 mmHg 93%
    04:00 +5°C° 0,1 mm 3 m/S 726 mmHg 93%
    05:00 +5°C° 0,1 mm 3 m/S 726 mmHg 93%
    06:00 +5°C° 0,1 mm 3 m/S 726 mmHg 93%
    07:00 +5°C° 0,1 mm 3 m/S 726 mmHg 93%
    08:00 +5°C° 0,1 mm 3 m/S 726 mmHg 90%
    09:00 +7°C° 0,1 mm 3 m/S 726 mmHg 88%
    10:00 +6°C° 0,1 mm 4 m/S 725 mmHg 85%
    11:00 +7°C° 0,5 mm 4 m/S 725 mmHg 84%
    12:00 +7°C° 0,5 mm 4 m/S 724 mmHg 82%
    13:00 +7°C° 0,5 mm 4 m/S 724 mmHg 80%
    14:00 +7°C° 0,8 mm 4 m/S 724 mmHg 83%
    15:00 +6°C° 0,8 mm 4 m/S 724 mmHg 86%
    16:00 +6°C° 0,8 mm 4 m/S 723 mmHg 88%
    17:00 +6°C° 0,7 mm 4 m/S 724 mmHg 89%
    18:00 +5°C° 0,7 mm 4 m/S 724 mmHg 90%
    19:00 +5°C° 0,7 mm 4 m/S 724 mmHg 91%
    20:00 +5°C° 0,7 mm 4 m/S 724 mmHg 91%
    21:00 +5°C° 0,7 mm 4 m/S 724 mmHg 92%
    22:00 +5°C° 0,7 mm 5 m/S 724 mmHg 92%
    23:00 +5°C° 0,7 mm 5 m/S 724 mmHg 92%

    29 Oktober, Sonntag

    Zeit Temperatur Niederschläge Wind Luftdruck Luftfeuchtigkeit
    00:00 +5°C° 0,7 mm 5 m/S 724 mmHg 92%
    01:00 +5°C° 0,7 mm 5 m/S 724 mmHg 92%
    02:00 +5°C° 0,3 mm 5 m/S 724 mmHg 92%
    03:00 +5°C° 0,3 mm 5 m/S 723 mmHg 92%
    04:00 +5°C° 0,3 mm 5 m/S 723 mmHg 92%
    05:00 +5°C° 0,2 mm 5 m/S 724 mmHg 92%
    06:00 +5°C° 0,2 mm 4 m/S 724 mmHg 92%
    07:00 +5°C° 0,2 mm 4 m/S 724 mmHg 92%
    08:00 +5°C° 0,1 mm 4 m/S 724 mmHg 91%
    09:00 +6°C° 0,1 mm 4 m/S 724 mmHg 90%
    10:00 +6°C° 0,1 mm 4 m/S 724 mmHg 89%
    11:00 +7°C° 0,1 mm 4 m/S 723 mmHg 86%
    12:00 +8°C° 0,1 mm 4 m/S 723 mmHg 83%
    13:00 +10°C° 0,1 mm 4 m/S 723 mmHg 81%
    14:00 +9°C° 0 mm 3 m/S 722 mmHg 82%
    15:00 +9°C° 0 mm 3 m/S 722 mmHg 83%
    16:00 +9°C° 0 mm 2 m/S 722 mmHg 84%
    17:00 +8°C° 0 mm 2 m/S 722 mmHg 86%
    18:00 +7°C° 0 mm 2 m/S 722 mmHg 87%
    19:00 +7°C° 0 mm 2 m/S 722 mmHg 88%
    20:00 +7°C° 0,6 mm 3 m/S 722 mmHg 90%
    21:00 +7°C° 0,6 mm 3 m/S 721 mmHg 91%
    22:00 +7°C° 0,6 mm 3 m/S 721 mmHg 93%
    23:00 +7°C° 0,7 mm 3 m/S 721 mmHg 93%
    Mehr zeigen